Jilin-1 Kuanfu-02B 04

operational
NORAD ID: 61192 Int'l Des: 2024-169 Owner: CGSTL Country: CN Constellation: jilin-1
LEOCIRCULARRETROGRADESSO

About Jilin-1 Kuanfu-02B 04

Description loading...

Live Position

Loading 3D Globe...

Upcoming Passes

Altitude History

Altitude vs Time

uPlot chart will show altitude changes over time

Two-Line Element Set

1 61192U 24169D 26063.19327368 .00008476 00000-0 53738-3 0 9991
2 61192 97.5535 153.6751 0008215 283.0241 77.0071 15.09144774 79997
Epoch: Mar 4, 2026 • Age: 13 hours

Current Status

Altitude 549.7 km
Velocity 7.59 km/s
Sub-Earth Point 47.78°N, 151.24°E
Launch Date Sep 20, 2024
Age 1.4 years
Type earth observation

Technical Details

Classification Payload
Mass 230.00 kg
Dry Mass 200.00 kg
Total Mass 230.00 kg
Length 0.50 m
Diameter 0.50 m
Span 1.50 m
Shape Box + 2 pan
Manufacturer HARB/CGSTL
Bus Type JL-1
Phase Status In Orbit
Owner/State CGSTL/CN

Large Constellations

Loading constellations...